Location: Newark
(35.8614°N, 139.6456°E)
Time: 23:25:30
(UTC+00:00)

N. Korean satellite - Visible Passes

Search period start: 09 December 2019 00:00
Search period end: 19 December 2019 00:00
Orbit: 456 x 506 km, 97.2° (Epoch: 09 December)

Date Brightness Start Highest point End Pass type
(mag) Time Alt. Az. Time Alt. Az. Time Alt. Az.
09 Dec 8.0 08:10:15 10° S 08:13:49 45° W 08:17:23 10° NNW visible
09 Dec 9.7 19:40:28 10° NE 19:42:41 16° E 19:44:52 10° SE visible
10 Dec 6.6 20:47:19 10° N 20:50:43 51° WNW 20:54:04 10° SSW visible
11 Dec 10.1 08:54:53 10° WSW 08:56:31 12° W 08:58:08 10° WNW visible
11 Dec 6.9 20:21:51 10° NNE 20:25:19 64° E 20:28:44 10° S visible
12 Dec 9.1 08:27:48 10° SSW 08:30:57 26° W 08:34:05 10° NW visible
12 Dec 8.8 19:56:49 10° NE 19:59:49 26° E 20:02:46 10° SSE visible
13 Dec 7.4 08:01:49 10° S 08:05:27 59° W 08:09:07 10° NNW visible
13 Dec 9.9 19:32:47 10° ENE 19:34:14 12° E 19:35:41 10° ESE visible
13 Dec 7.3 21:04:39 10° NNW 21:07:41 28° WNW 21:10:41 10° SW visible
14 Dec 6.3 20:38:53 10° N 20:42:21 68° WNW 20:45:45 10° SSW visible
15 Dec 9.8 08:45:48 10° SW 08:48:05 16° W 08:50:23 10° NW visible
15 Dec 7.5 20:13:32 10° NNE 20:16:55 47° E 20:20:13 10° S visible
16 Dec 8.6 08:19:11 10° SSW 08:22:33 33° W 08:25:54 10° NNW visible
16 Dec 9.2 19:48:43 10° NE 19:51:23 20° E 19:54:00 10° SE visible
17 Dec 6.8 07:53:24 10° S 07:57:05 78° W 08:00:45 10° NNW visible
17 Dec 7.0 20:56:07 10° N 20:59:19 36° WNW 21:02:29 10° SW visible
18 Dec 6.4 20:30:28 10° NNE 20:33:56 89° ESE 20:37:21 10° SSW visible
